Simultaneous Nadir Overpasses (SNOs) Predictions

Prediction of SNOs between METOP-A and NOAA-19 Satellite Orbit:

Table of predicted SNOs for the next 14.0 days since TLE Epoch: 9/18/2020
Index Date (METOP-A) Time (METOP-A) Lat,Lon (METOP-A) SZA (METOP-A ) Date (NOAA-19) Time (NOAA-19) Lat,Lon (NOAA-19) SZA (NOAA-19 ) Distance(km) Time Diff (sec)
1 09/20/2020 23:01:48 80.69,-151.99 80.35 09/20/2020 23:00:55 80.69,-152.05 80.34 1.12 53
2 09/20/2020 23:52:30 -80.68, 15.12 99.66 09/20/2020 23:51:50 -80.69, 15.15 99.65 1.94 40
3 09/21/2020 00:43:10 80.68,-177.46 80.37 09/21/2020 00:42:55 80.69,-177.36 80.37 1.74 15
4 09/21/2020 01:33:51 -80.69, -10.02 99.61 09/21/2020 01:33:50 -80.69, -10.16 99.62 2.62 1
5 09/21/2020 02:24:31 80.70, 157.40 80.42 09/21/2020 02:24:55 80.68, 157.32 80.40 2.56 24
6 09/21/2020 03:15:13 -80.68, -35.49 99.60 09/21/2020 03:15:50 -80.68, -35.48 99.59 0.23 37
7 09/21/2020 04:05:53 80.69, 131.93 80.43 09/21/2020 04:06:55 80.68, 132.01 80.43 2.10 62
8 09/21/2020 04:56:35 -80.67, -60.96 99.59 09/21/2020 04:57:50 -80.68, -60.79 99.56 3.06 75
9 10/02/2020 00:15:15 80.72,-170.23 84.72 10/02/2020 00:14:10 80.70,-170.26 84.69 2.01 65
10 10/02/2020 01:05:57 -80.71, -3.07 95.29 10/02/2020 01:05:06 -80.70, -2.90 95.30 3.19 51
11 10/02/2020 01:56:36 80.71, 164.30 84.73 10/02/2020 01:56:09 80.70, 164.43 84.72 2.76 27
12 10/02/2020 02:47:18 -80.70, -28.54 95.28 10/02/2020 02:47:06 -80.70, -28.57 95.28 0.87 12
13 10/02/2020 03:37:58 80.70, 138.82 84.74 10/02/2020 03:38:10 80.70, 138.75 84.74 1.40 12
14 10/02/2020 04:28:40 -80.69, -54.01 95.27 10/02/2020 04:29:06 -80.70, -53.89 95.25 2.51 26
15 10/02/2020 05:19:20 80.69, 113.35 84.75 10/02/2020 05:20:10 80.70, 113.43 84.77 1.51 50
